TimeCDT,TemperatureF,Dew PointF,Humidity,Sea Level PressureIn,VisibilityMPH,Wind Direction,Wind SpeedMPH,Gust SpeedMPH,PrecipitationIn,Events,Conditions,WindDirDegrees,DateUTC
12:53 AM,43.0,33.1,68,29.94,10.0,Calm,Calm,-,N/A,,Clear,0,2012-10-31 05:53:00
1:53 AM,42.1,34.0,73,29.94,10.0,Calm,Calm,-,N/A,,Clear,0,2012-10-31 06:53:00
2:53 AM,39.9,34.0,79,29.95,10.0,Calm,Calm,-,N/A,,Clear,0,2012-10-31 07:53:00
3:53 AM,37.9,34.0,86,29.95,10.0,Calm,Calm,-,N/A,,Clear,0,2012-10-31 08:53:00
4:53 AM,37.0,34.0,89,29.96,10.0,Calm,Calm,-,N/A,,Clear,0,2012-10-31 09:53:00
5:53 AM,37.0,34.0,89,29.97,10.0,Calm,Calm,-,N/A,,Clear,0,2012-10-31 10:53:00
6:53 AM,36.0,34.0,93,29.98,10.0,Calm,Calm,-,N/A,,Clear,0,2012-10-31 11:53:00
7:53 AM,39.2,35.6,87,29.98,10.0,Calm,Calm,-,N/A,,Clear,0,2012-10-31 12:53:00
8:53 AM,46.9,35.1,63,29.99,10.0,West,3.5,-,N/A,,Clear,260,2012-10-31 13:53:00
9:53 AM,52.0,33.1,49,29.99,10.0,Calm,Calm,-,N/A,,Clear,0,2012-10-31 14:53:00
10:53 AM,55.9,30.9,39,29.99,10.0,West,8.1,-,N/A,,Clear,280,2012-10-31 15:53:00
11:53 AM,60.1,30.0,32,29.98,10.0,West,13.8,20.7,N/A,,Clear,280,2012-10-31 16:53:00
12:53 PM,63.0,30.9,30,29.95,10.0,WNW,11.5,21.9,N/A,,Clear,290,2012-10-31 17:53:00
1:53 PM,64.0,30.9,29,29.93,9.0,West,12.7,20.7,N/A,,Clear,280,2012-10-31 18:53:00
2:53 PM,66.9,32.0,27,29.92,10.0,West,15.0,20.7,N/A,,Clear,270,2012-10-31 19:53:00
3:53 PM,64.9,33.1,31,29.91,10.0,WNW,12.7,19.6,N/A,,Clear,300,2012-10-31 20:53:00
4:53 PM,63.0,33.1,33,29.92,10.0,West,13.8,-,N/A,,Clear,280,2012-10-31 21:53:00
5:53 PM,61.0,35.1,38,29.93,10.0,West,8.1,-,N/A,,Scattered Clouds,280,2012-10-31 22:53:00
6:53 PM,57.9,37.0,46,29.94,10.0,West,9.2,-,N/A,,Partly Cloudy,260,2012-10-31 23:53:00
7:53 PM,55.9,37.0,49,29.94,10.0,West,6.9,-,N/A,,Clear,280,2012-11-01 00:53:00
8:53 PM,55.0,37.9,53,29.96,10.0,WSW,5.8,-,N/A,,Clear,250,2012-11-01 01:53:00
9:53 PM,53.1,37.9,57,29.97,10.0,WNW,4.6,-,N/A,,Clear,290,2012-11-01 02:53:00
10:53 PM,51.1,37.0,59,29.98,10.0,NW,3.5,-,N/A,,Clear,310,2012-11-01 03:53:00
11:53 PM,44.1,37.9,79,30.00,10.0,Calm,Calm,-,N/A,,Clear,0,2012-11-01 04:53:00